EUTELSAT KA-SAT 9A

Last updated on Wed Sep 17 2025 00:02:47 GMT+0000 (Coordinated Universal Time)

1 37258U 10069A 25259.58546536 .00000043 00000+0 00000+0 0 9991 2 37258 0.0552 328.2799 0003148 173.3121 73.9694 1.00273082 41267
UTC large
Height (km)
Speed (km/s)
/
Latitude / Longitude
Inclination (degrees)
Orbital Period (minutes)
Azimuth
Elevation
Range (km)
Doppler Factor

Next 0 passes for location: London (51.5072 / 0.1276)

Sorry there are no passes over London.